Location: Plainartige
(45.6866°N, 1.7993°E)
Time: 10:15:31
(UTC+00:00)

Tiros 1 - Pass Details

Date: 31 May 2022
Orbit: 629 x 663 km, 48.4° (Epoch: 04 July)

Event Time Altitude Azimuth Distance (km) Brightness Sun altitude
Rises 02:58:17 0° 287° (WNW) 2,924 10.3 -10.1°
Reaches altitude 10° 03:00:36 10° 288° (WNW) 2,019 9.4 -9.8°
Maximum altitude 03:05:15 82° 15° (NNE) 648 7.2 -9.3°
Drops below altitude 10° 03:09:57 10° 105° (ESE) 2,034 10.1 -8.7°
Sets 03:12:18 0° 107° (ESE) 2,948 11.0 -8.4°
